Regional Weather Roundup
Issued by NWS

Home | Current Version | Previous Version | Graphics & Text | Print | Product List | Glossary On
Versions: 1 2 3 4 5 6 7 8 9 10 11 12 13 14 15 16 17 18 19 20 21 22 23 24 25 26 27 28 29 30 31 32 33 34 35 36 37 38 39 40 41 42 43 44 45 46 47 48 49 50
000
ASUS45 KBOU 011007
RWRCO

WEATHER ROUNDUP FOR COLORADO
NATIONAL WEATHER SERVICE DENVER/BOULDER CO
400 AM MDT FRI AUG 01 2014

NOTE: "FAIR" INDICATES FEW OR NO CLOUDS BELOW 12000 FEET WITH NO
SIGNIFICANT WEATHER AND/OR OBSTRUCTIONS TO VISIBILITY.

COZ001>005-013-030-031-011100-
...NORTHWEST COLORADO...

CITY           SKY/WX    TMP DP  RH WIND       PRES   REMARKS
CRAIG          MOCLDY    56  49  77 E9        30.24S
HAYDEN         CLOUDY    57  45  62 SE10      30.27S
MEEKER         PTCLDY    55  49  80 NE7       30.25S
MOUNT WERNER   NOT AVBL
STEAMBOAT SPGS MOCLDY    53  46  77 NW6       30.30S
WALDEN         CLEAR     43  36  75 CALM      30.40S
$$

COZ006>008-011-011100-
...WEST CENTRAL VALLEYS...

CITY           SKY/WX    TMP DP  RH WIND       PRES   REMARKS
GRAND JUNCTION MOCLDY    68  50  52 N7        30.15R
MONTROSE       CLOUDY    68  51  54 SE12      30.23R
EAGLE          MOCLDY    54  52  94 CALM      30.32S
RIFLE          MOCLDY    62  51  67 E3        30.20R
DELTA          MOCLDY    67  52  58 N6        30.19S
NUCLA          MOCLDY    63  52  67 SE7       30.27R
$$

COZ017>023-064>068-011100-
...SOUTHWEST COLORADO...

CITY           SKY/WX    TMP DP  RH WIND       PRES   REMARKS
DURANGO        CLOUDY    59  51  75 NE3       30.31S
CORTEZ         PTCLDY    64  52  64 N3        30.24F
PAGOSA SPRINGS PTCLDY    54  53  95 NW3       30.38S
TELLURIDE      CLOUDY    52  50  93 E6        30.45F
WOLF CREEK PAS NOT AVBL
$$

COZ009-010-012-014-032>034-037-058>063-011100-
...CENTRAL COLORADO...

CITY           SKY/WX    TMP DP  RH WIND       PRES   REMARKS
ASPEN          PTCLDY    51  47  86 SW3       30.33F
BUENA VISTA    CLOUDY    51  49  93 CALM      30.42S
COPPER MTN     PTCLDY    45  37  76 S20       30.62F
BERTHOUD PASS  FAIR      36  36 100 SE10      30.67F
COTTONWOOD PAS CLOUDY    50  46  87 CALM      30.52S
GUNNISON       MOCLDY    52  45  76 N7        30.40S
KREMMLING      CLOUDY    52  46  82 CALM      30.38S
LEADVILLE      CLOUDY    46  45  96 SW3         N/A  FOG
MONARCH PASS   MOCLDY    43  36  75 CALM      30.72F
SALIDA         CLOUDY    56  54  92 CALM      30.46F
SUNLIGHT       CLOUDY    50  46  87 CALM      30.55S
WILKERSON PASS PTCLDY    41  41 100 S6        30.62S
$$

COZ069>075-011100-
...SAN LUIS VALLEY/SANGRE DE CRISTO MOUNTAINS...

CITY           SKY/WX    TMP DP  RH WIND       PRES   REMARKS
ALAMOSA        CLOUDY    53  50  89 SW3       30.37F
LA VETA PASS   CLOUDY    45  45 100 CALM      30.52F
SAGUACHE       CLOUDY    52  48  87 NW7       30.39F
$$

COZ035-036-038>040-011100-
...NORTHERN COLORADO FRONT RANGE...

CITY           SKY/WX    TMP DP  RH WIND       PRES   REMARKS
DENVER INTL AP PTCLDY    59  53  80 SW6       30.26F
DMNS CITY PARK   N/A     56  54  92 S3        30.26S
AURORA         PTCLDY    57  54  90 S7        30.29S
FRONT RANGE AP PTCLDY    59  54  82 S5        30.28S
ERIE MUNI ARPT PTCLDY    55  52  88 CALM      30.25F
BOULDER MUN AP PTCLDY    61  46  59 S3        30.25F
CENTENNIAL     PTCLDY    57  52  83 S6        30.29F
BROOMFIELD     PTCLDY    59  50  72 CALM      30.28S
FORT COLLINS   MOCLDY    57  52  82 N5        30.26S
LONGMONT       MOCLDY    59  50  72 W3        30.26S
$$

COZ041-046-047-076>085-087-088-011100-
...PIKES PEAK/PALMER DIVIDE AND SOUTHERN FOOTHILLS...

CITY           SKY/WX    TMP DP  RH WIND       PRES   REMARKS
COLO. SPRINGS  PTCLDY    55  52  89 NE8       30.32F
A. F. ACADEMY  PTCLDY    51  51 100 N8        30.34S
ELLICOTT       PTCLDY    52  50  93 NE3       30.31S
FALCON         PTCLDY    52  51  97 NW3       30.36F
FORT CARSON    MOCLDY    56  53  90 N6        30.30S
LIMON          CLEAR     51  51 100 N3        30.28F FOG
MONUMENT HILL  PTCLDY    50  48  93 SW7       30.36S
TRINIDAD       CLOUDY    59  55  87 NW3       30.29S
$$

COZ042>045-048>051-090-091-011100-
...NORTHEAST COLORADO...

CITY           SKY/WX    TMP DP  RH WIND       PRES   REMARKS
GREELEY ARPT   NOT AVBL
AKRON          CLEAR     60  55  83 SW8       30.22F
BURLINGTON     CLEAR     57  52  83 W8        30.20S
WRAY             N/A     60  55  83 SW7       30.17F
STERLING       CLEAR     59  57  94 CALM      30.19S
HOLYOKE        CLEAR     59  54  82 CALM      30.17F
FORT MORGAN    CLEAR     55  52  89 CALM      30.23S
$$

COZ086-089-092>099-011100-
...SOUTHEAST COLORADO...

CITY           SKY/WX    TMP DP  RH WIND       PRES   REMARKS
PUEBLO         CLOUDY    62  61  96 E5        30.24S
LA JUNTA       MOCLDY    63  56  78 N3        30.21F
LAMAR          CLEAR     57  54  89 SW6       30.19R
SPRINGFIELD      N/A     58  55  90 W6        30.23S
$$



USA.gov is the U.S. government's official web portal to all federal, state and local government web resources and services.